This is the latest recevied weather packets stored in our database for station/object KO4T-4. If no packets are shown the sender has not sent any weather packets the latest 10 day(s).
| Time | Temp. | Humidity | Pressure | Rain* | Wind** | Luminosity | Snow |
|---|---|---|---|---|---|---|---|
| 1778015403 | 25.56° C | 38% | 1013.7 hPa | 0 mm | - | - | - |
| 1778015103 | 25.56° C | 36% | 1013.9 hPa | 0 mm | - | - | - |
| 1778014803 | 25.56° C | 37% | 1014 hPa | 0 mm | - | - | - |
| 1778014503 | 25.56° C | 39% | 1013.9 hPa | 0 mm | - | - | - |
| 1778014203 | 25.56° C | 38% | 1013.9 hPa | 0 mm | - | - | - |
| 1778013903 | 25.56° C | 37% | 1014 hPa | 0 mm | - | - | - |
| 1778013604 | 25.56° C | 37% | 1013.9 hPa | 0 mm | - | - | - |
| 1778013303 | 25.56° C | 38% | 1013.9 hPa | 0 mm | - | - | - |
| 1778013003 | 25.56° C | 37% | 1014 hPa | 0 mm | - | - | - |
| 1778012703 | 25° C | 39% | 1014.1 hPa | 0 mm | - | - | - |
| 1778012403 | 24.44° C | 38% | 1014.3 hPa | 0 mm | - | - | - |
| 1778012103 | 25° C | 38% | 1014.3 hPa | 0 mm | - | - | - |
| 1778011803 | 25° C | 38% | 1014.5 hPa | 0 mm | - | - | - |
| 1778011503 | 25.56° C | 35% | 1014.5 hPa | 0 mm | - | - | - |
| 1778011203 | 25.56° C | 36% | 1014.6 hPa | 0 mm | - | - | - |
| 1778010903 | 25.56° C | 37% | 1014.7 hPa | 0 mm | - | - | - |
| 1778010603 | 25.56° C | 39% | 1014.6 hPa | 0 mm | - | - | - |
| 1778010303 | 25.56° C | 37% | 1014.5 hPa | 0 mm | - | - | - |
| 1778010003 | 25.56° C | 39% | 1014.6 hPa | 0 mm | - | - | - |
| 1778009703 | 25.56° C | 38% | 1014.5 hPa | 0 mm | - | - | - |
| 1778009403 | 25° C | 39% | 1014.5 hPa | 0 mm | - | - | - |
| 1778009103 | 25.56° C | 39% | 1014.6 hPa | 0 mm | - | - | - |
| 1778008804 | 25.56° C | 39% | 1014.7 hPa | 0 mm | - | - | - |
| 1778008503 | 25.56° C | 40% | 1014.7 hPa | 0 mm | - | - | - |
| 1778008203 | 25° C | 40% | 1014.8 hPa | 0 mm | - | - | - |
* Rain latest hour (hover to see other rain measurements)
** Current wind speed in m/s (hover to see current wind gust speed)